| time (UTC) | temp C | wind direction | speed KPH | gust KPH | rain 1hr cm | rain 24hr cm | rain mn cm | humidity % | barometer mb |
| 20260504201543 | 20 | 191 | 11.3 | 25.7 | 0.00 | 0.00 | 0.00 | 37 | 1003.3 |
| 20260504200038 | 20 | 222 | 11.3 | 25.7 | 0.00 | 0.00 | 0.00 | 36 | 1003.6 |
| 20260504194539 | 20 | 196 | 9.7 | 29.0 | 0.00 | 0.00 | 0.00 | 36 | 1003.7 |
| 20260504193035 | 20 | 183 | 12.9 | 27.4 | 0.00 | 0.00 | 0.00 | 37 | 1003.8 |
| 20260504191536 | 20 | 167 | 8.0 | 24.1 | 0.00 | 0.00 | 0.00 | 38 | 1004.0 |
| 20260504190029 | 19 | 195 | 6.4 | 32.2 | 0.00 | 0.00 | 0.00 | 37 | 1004.0 |
| 20260504184526 | 19 | 223 | 8.0 | 25.7 | 0.00 | 0.00 | 0.00 | 38 | 1004.1 |
| 20260504183024 | 18 | 144 | 14.5 | 30.6 | 0.00 | 0.00 | 0.00 | 40 | 1004.2 |
| 20260504181527 | 18 | 183 | 12.9 | 35.4 | 0.00 | 0.00 | 0.00 | 41 | 1004.2 |
| 20260504180050 | 18 | 202 | 8.0 | 27.4 | 0.00 | 0.00 | 0.00 | 41 | 1004.2 |
| 20260504174549 | 17 | 193 | 12.9 | 32.2 | 0.00 | 0.00 | 0.00 | 43 | 1004.3 |
| 20260504173045 | 18 | 175 | 16.1 | 37.0 | 0.00 | 0.00 | 0.00 | 41 | 1004.3 |
| 20260504171542 | 17 | 196 | 19.3 | 32.2 | 0.00 | 0.00 | 0.00 | 42 | 1004.4 |
| 20260504081553 | 7 | 123 | 1.6 | 4.8 | 0.00 | 0.00 | 0.00 | 62 | 1007.6 |
| 20260504050011 | 7 | 150 | 0.0 | 0.0 | 0.00 | 0.00 | 0.00 | 69 | 1007.8 |
| 20260504044507 | 8 | 151 | 0.0 | 0.0 | 0.00 | 0.00 | 0.00 | 68 | 1008.0 |
| 20260504043009 | 8 | 152 | 0.0 | 0.0 | 0.00 | 0.00 | 0.00 | 67 | 1008.1 |
| 20260504041509 | 8 | 156 | 0.0 | 0.0 | 0.00 | 0.00 | 0.00 | 65 | 1008.2 |
| 20260504040004 | 8 | 161 | 0.0 | 3.2 | 0.00 | 0.00 | 0.00 | 63 | 1008.4 |
| 20260504034503 | 8 | 244 | 0.0 | 4.8 | 0.00 | 0.00 | 0.00 | 62 | 1008.7 |
| 20260504033002 | 8 | 200 | 0.0 | 1.6 | 0.00 | 0.00 | 0.00 | 62 | 1008.8 |
| 20260504031540 | 8 | 309 | 1.6 | 6.4 | 0.00 | 0.00 | 0.00 | 61 | 1008.7 |
| 20260504030034 | 8 | 255 | 3.2 | 11.3 | 0.00 | 0.00 | 0.00 | 60 | 1008.8 |
| 20260504024528 | 8 | 203 | 0.0 | 4.8 | 0.00 | 0.00 | 0.00 | 61 | 1008.8 |
| 20260504023029 | 7 | 159 | 4.8 | 11.3 | 0.00 | 0.00 | 0.00 | 66 | 1008.9 |
| 20260504021526 | 6 | 167 | 1.6 | 6.4 | 0.00 | 0.00 | 0.00 | 70 | 1008.8 |
| 20260504020026 | 6 | 9 | 0.0 | 0.0 | 0.00 | 0.00 | 0.00 | 69 | 1008.7 |
| 20260504014525 | 6 | 9 | 0.0 | 0.0 | 0.00 | 0.00 | 0.00 | 68 | 1008.5 |
| 20260504013033 | 6 | 26 | 0.0 | 0.0 | 0.00 | 0.00 | 0.00 | 66 | 1008.6 |
| 20260504011522 | 6 | 310 | 0.0 | 1.6 | 0.00 | 0.00 | 0.00 | 65 | 1008.8 |
| 20260504010020 | 7 | 311 | 0.0 | 1.6 | 0.00 | 0.00 | 0.00 | 64 | 1008.6 |
| 20260504004519 | 7 | 311 | 0.0 | 3.2 | 0.00 | 0.00 | 0.00 | 61 | 1008.4 |
| 20260504003015 | 7 | 263 | 0.0 | 3.2 | 0.00 | 0.00 | 0.00 | 58 | 1008.2 |
| 20260504001514 | 8 | 268 | 0.0 | 4.8 | 0.00 | 0.00 | 0.00 | 54 | 1008.1 |
| 20260504000035 | 9 | 252 | 0.0 | 3.2 | 0.00 | 0.00 | 0.00 | 51 | 1008.0 |
| 20260503234512 | 10 | 311 | 0.0 | 8.0 | 0.00 | 0.00 | 0.00 | 50 | 1007.9 |
| 20260503233010 | 10 | 293 | 0.0 | 17.7 | 0.00 | 0.00 | 0.00 | 49 | 1007.8 |
| 20260503231509 | 10 | 20 | 12.9 | 22.5 | 0.00 | 0.00 | 0.00 | 49 | 1007.9 |
| 20260503230008 | 10 | 234 | 6.4 | 14.5 | 0.00 | 0.00 | 0.00 | 49 | 1008.0 |
| 20260503224506 | 10 | 292 | 3.2 | 17.7 | 0.00 | 0.00 | 0.00 | 48 | 1007.9 |
| 20260503223039 | 10 | 337 | 1.6 | 22.5 | 0.00 | 0.00 | 0.00 | 46 | 1007.9 |
| 20260503221547 | 10 | 332 | 9.7 | 25.7 | 0.00 | 0.00 | 0.00 | 46 | 1007.8 |
| 20260503220004 | 10 | 312 | 9.7 | 22.5 | 0.00 | 0.00 | 0.00 | 44 | 1007.9 |
| 20260503214503 | 10 | 277 | 8.0 | 19.3 | 0.00 | 0.00 | 0.00 | 43 | 1007.8 |
| 20260503213001 | 10 | 267 | 8.0 | 27.4 | 0.00 | 0.00 | 0.00 | 41 | 1007.7 |
| 20260503211620 | 10 | 349 | 12.9 | 29.0 | 0.00 | 0.00 | 0.00 | 39 | 1007.6 |
| 20260503204600 | 10 | 55 | 4.8 | 30.6 | 0.00 | 0.00 | 0.00 | 36 | 1007.4 |
| 20260503203108 | 10 | 5 | 8.0 | 29.0 | 0.00 | 0.00 | 0.00 | 34 | 1007.6 |